Preview of NWS' New Version of Forecast
This preview is not operational and should not be used for support decisions.

Regional Weather Roundup (RWR)

Issued by National Weather Service (NWS)

                            
000
ASUS45 KBOU 181910
RWRCO 

WEATHER ROUNDUP FOR COLORADO
NATIONAL WEATHER SERVICE DENVER/BOULDER CO
1200 PM MST MON FEB 18 2019

NOTE: "FAIR" INDICATES FEW OR NO CLOUDS BELOW 12000 FEET WITH NO
SIGNIFICANT WEATHER AND/OR OBSTRUCTIONS TO VISIBILITY.

COZ001>005-013-030-031-182000-
...NORTHWEST COLORADO...
  
CITY           SKY/WX    TMP DP  RH WIND       PRES   REMARKS
CRAIG          CLOUDY    17   9  70 CALM      29.92F                  
HAYDEN         FAIR      13   8  81 SW8       29.91S WCI   2          
MEEKER         FAIR      23  13  65 SW7       29.86F WCI  15          
RANGELY        FAIR      21  10  62 NE13G18   29.93F WCI   9          
RABBIT EARS PA MOCLDY    14   5  67 SW6       29.75S WCI   5          
STEAMBOAT SPGS FAIR      18   7  60 SW3       29.86S                  
WALDEN         FAIR       5  -2  72 N3        29.85F                  
$$

COZ006>008-011-182000-
...WEST CENTRAL VALLEYS...
  
CITY           SKY/WX    TMP DP  RH WIND       PRES   REMARKS
GRAND JUNCTION CLOUDY    31  23  72 CALM      29.88F                  
MONTROSE       CLOUDY    30   9  41 N7        29.86F WCI  23          
EAGLE          FAIR      23   6  48 W5        29.89F WCI  17          
RIFLE          PTSUNNY   29  14  53 CALM      29.87F                  
DELTA          CLOUDY    35  15  43 CALM      29.87F                  
NUCLA          CLOUDY    27  19  74 W3        29.87S                  
$$

COZ017>023-064>068-182000-
...SOUTHWEST COLORADO...
  
CITY           SKY/WX    TMP DP  RH WIND       PRES   REMARKS
DURANGO        HVY SNOW  23  22  96 E8G17     29.87F VSB 1/4 WCI  14  
CORTEZ         LGT SNOW  30  21  69 SE9G26    29.83F WCI  22          
PAGOSA SPRINGS LGT SNOW  24  20  85 NE3       29.88F VSB 3/4          
TELLURIDE      CLOUDY    19   9  63 S10G17    29.78S HAZE    WCI   8  
WOLF CREEK PAS CLOUDY     5   3  92 S15G25    29.81F WCI -13          
$$

COZ009-010-012-014-032>034-037-058>063-182000-
...CENTRAL COLORADO...
  
CITY           SKY/WX    TMP DP  RH WIND       PRES   REMARKS
ASPEN          FAIR      25   4  40 N3        29.79S                  
BUENA VISTA    FAIR      11   2  67 CALM      29.93F                  
COPPER MTN     FAIR      12  -4  48 S21G26    29.70S WCI  -6          
BERTHOUD PASS  FAIR       3  -8  60 S7        29.71S WCI  -9          
COTTONWOOD PAS PTSUNNY    9   5  85 SE6       29.82F WCI  -1          
GUNNISON       FAIR       8   1  73 E7        29.86F WCI  -3          
GRANBY         FAIR       9   0  66 CALM      29.84F                  
KREMMLING      FAIR      14   3  62 CALM      29.88F                  
LEADVILLE      FAIR       5  -1  76 S13       29.78F WCI -12          
MONARCH PASS     N/A      7   3  85 SW7       29.85F WCI  -5          
SALIDA         CLOUDY    13   7  75 E3        30.02F                  
SUNLIGHT       CLOUDY    12   5  73 MISG      29.79F                  
WILKERSON PASS FAIR     N/A N/A N/A SW7       29.80R                  
$$

COZ069>075-182000-
...SAN LUIS VALLEY/SANGRE DE CRISTO MOUNTAINS...
  
CITY           SKY/WX    TMP DP  RH WIND       PRES   REMARKS
ALAMOSA        FAIR      27  15  61 S23G32    29.88F WCI  12          
DEL NORTE      CLOUDY    18  10  69 NE3       29.89F                  
LA VETA PASS   NOT AVBL                                               
SAGUACHE       FAIR      23  12  63 CALM      29.90F                  
$$

COZ035-036-038>040-182000-
...NORTHERN COLORADO FRONT RANGE...
  
CITY           SKY/WX    TMP DP  RH WIND       PRES   REMARKS
DENVER INTL AP PTSUNNY   19   9  65 W8        30.05F WCI   9          
AURORA         FLURRIES  16   8  69 NW5       30.04F WCI   9          
FRONT RANGE AP PTSUNNY   21   9  58 SE13G20   30.06F WCI   9          
ERIE MUNI ARPT PTSUNNY   15   7  72 NE6       30.16F WCI   6          
BOULDER MUN AP FAIR      14   5  67 NE3       30.09F                  
CENTENNIAL     PTSUNNY   15   8  73 W6        30.02F WCI   6          
BROOMFIELD     CLOUDY    16   9  73 NW9       30.06F WCI   4          
FORT COLLINS   FLURRIES  12   6  77 SE7       30.13F WCI   1          
LONGMONT       CLOUDY    17   7  63 NE5       30.14F HAZE    WCI  10  
$$

COZ041-046-047-076>085-087-088-182000-
...PIKES PEAK/PALMER DIVIDE AND SOUTHERN FOOTHILLS...
  
CITY           SKY/WX    TMP DP  RH WIND       PRES   REMARKS
COLO. SPRINGS  LGT SNOW  10   6  84 SE14G22   30.04F FOG     WCI  -6  
A. F. ACADEMY  CLOUDY    11   4  73 S12       29.99F WCI  -4          
SCHRIEVER AFB  NOT AVBL                                               
CHEYENNE MTN   LGT SNOW   6   4  90 SE16      29.92F VSB 5/8 WCI -12  
ELLICOTT       NOT AVBL                                               
FALCON         LGT SNOW  11   3  70 S10G17    30.00F WCI  -3          
FORT CARSON    PTSUNNY   12   5  74 S16       30.05F WCI  -4          
LIMON          CLOUDY    14   8  77 S10       30.11F WCI   1          
MONUMENT HILL  FAIR      12   3  67 S16       29.97F WCI  -4          
CANON CITY     FLURRIES  19  12  73 CALM      30.09F                  
WALSENBURG     NOT AVBL                                               
TRINIDAD       FAIR      16  10  77 E8        30.06F WCI   5          
$$

COZ042>045-048>051-090-091-182000-
...NORTHEAST COLORADO...
  
CITY           SKY/WX    TMP DP  RH WIND       PRES   REMARKS
GREELEY ARPT   PTSUNNY   17   4  56 SE8       30.16F WCI   7          
AKRON          CLOUDY    12   7  80 SE12      30.18F WCI  -2          
BURLINGTON     CLOUDY    14   6  70 VRB3      30.25F                  
WRAY           LGT SNOW  16   7  67 E3        30.30F                  
YUMA           LGT SNOW  12   3  67 NE5       30.25F WCI   4          
STERLING       CLOUDY    14   5  67 E5        30.24F WCI   6          
HOLYOKE        LGT SNOW  18   5  57 CALM      30.30F                  
FORT MORGAN      N/A     17   1  51 E9G16     30.19F WCI   5          
$$

COZ086-089-092>099-182000-
...SOUTHEAST COLORADO...
  
CITY           SKY/WX    TMP DP  RH WIND       PRES   REMARKS
PUEBLO         CLOUDY    14   7  73 SE9       30.16F HAZE    WCI   2  
LA JUNTA       CLOUDY    13   6  74 E10       30.23F WCI   0          
LAMAR          LGT SNOW  15   7  70 E7        30.27F WCI   5          
SPRINGFIELD      N/A     11   7  84 E5        30.23F WCI   3          
$$